TimeCDT,TemperatureF,Dew PointF,Humidity,Sea Level PressureIn,VisibilityMPH,Wind Direction,Wind SpeedMPH,Gust SpeedMPH,PrecipitationIn,Events,Conditions,WindDirDegrees,DateUTC
12:53 AM,37.9,27.0,65,30.22,10.0,NNE,3.5,-,N/A,,Clear,20,2013-04-02 05:53:00
1:53 AM,37.0,26.1,65,30.23,10.0,North,3.5,-,N/A,,Clear,10,2013-04-02 06:53:00
2:53 AM,37.0,25.0,62,30.24,10.0,Calm,Calm,-,N/A,,Mostly Cloudy,0,2013-04-02 07:53:00
3:53 AM,37.0,27.0,67,30.23,10.0,NNE,5.8,-,N/A,,Overcast,20,2013-04-02 08:53:00
4:53 AM,36.0,24.1,62,30.25,10.0,NNE,6.9,-,N/A,,Partly Cloudy,20,2013-04-02 09:53:00
5:53 AM,35.1,25.0,67,30.27,10.0,NNE,3.5,-,N/A,,Overcast,30,2013-04-02 10:53:00
6:53 AM,34.0,24.1,67,30.30,10.0,NNE,3.5,-,N/A,,Scattered Clouds,30,2013-04-02 11:53:00
7:53 AM,37.0,24.1,59,30.31,10.0,NNE,8.1,-,N/A,,Clear,30,2013-04-02 12:53:00
8:53 AM,39.9,24.1,53,30.32,10.0,ENE,8.1,-,N/A,,Clear,60,2013-04-02 13:53:00
9:53 AM,43.0,23.0,45,30.32,10.0,NNE,6.9,-,N/A,,Clear,30,2013-04-02 14:53:00
10:53 AM,46.0,21.9,39,30.32,10.0,Variable,4.6,-,N/A,,Clear,0,2013-04-02 15:53:00
11:53 AM,46.9,21.0,36,30.30,10.0,NNE,11.5,-,N/A,,Clear,20,2013-04-02 16:53:00
12:53 PM,46.0,19.0,34,30.30,10.0,Variable,3.5,-,N/A,,Mostly Cloudy,0,2013-04-02 17:53:00
1:53 PM,46.0,16.0,30,30.28,10.0,West,3.5,-,N/A,,Overcast,280,2013-04-02 18:53:00
2:53 PM,46.0,17.1,31,30.28,10.0,Calm,Calm,-,N/A,,Overcast,0,2013-04-02 19:53:00
3:53 PM,46.9,19.0,33,30.26,10.0,Calm,Calm,-,N/A,,Overcast,0,2013-04-02 20:53:00
4:53 PM,46.9,17.1,30,30.25,10.0,Calm,Calm,-,N/A,,Overcast,0,2013-04-02 21:53:00
5:53 PM,46.0,21.0,37,30.25,10.0,WNW,3.5,-,N/A,,Clear,300,2013-04-02 22:53:00
6:53 PM,44.1,24.1,45,30.26,10.0,WSW,4.6,-,N/A,,Clear,250,2013-04-02 23:53:00
7:53 PM,42.1,21.9,45,30.27,10.0,WSW,3.5,-,N/A,,Clear,250,2013-04-03 00:53:00
8:53 PM,37.9,28.0,68,30.28,10.0,Calm,Calm,-,N/A,,Clear,0,2013-04-03 01:53:00
9:53 PM,37.0,24.1,59,30.29,10.0,Calm,Calm,-,N/A,,Clear,0,2013-04-03 02:53:00
10:53 PM,37.0,23.0,57,30.29,10.0,NE,3.5,-,N/A,,Clear,40,2013-04-03 03:53:00
11:53 PM,37.0,19.9,50,30.28,10.0,NNE,3.5,-,N/A,,Clear,30,2013-04-03 04:53:00